{"data":{"norad_id":67894,"epoch":"2026-05-25T02:07:33.280896Z","epoch_age_seconds":70564,"freshness":"FRESH","line1":"1 67894U 26035R   26145.08857964  .00024695  00000+0  76445-3 0  9999","line2":"2 67894  97.2850  78.5739 0001658  95.4222 264.7209 15.33457329 15693","mean_motion":15.33457329,"eccentricity":0.0001658,"inclination_deg":97.285,"raan_deg":78.5739,"arg_perigee_deg":95.4222,"mean_anomaly_deg":264.7209,"bstar":0.00076445,"rev_number":1569,"period_min":93.905449650761,"perigee_km":464.37181620307,"apogee_km":466.64116838511,"semimajor_km":6843.6434922941,"source":"CELESTRAK","updated_at":"2026-05-25T13:38:21.734923Z"}}